Date String (YYYY-MM-DD hh:mm:ss) UTC,Instrument flags,Ambient pressure (hPa),Sample flow (lpm),Bypass flow (lpm),Sample temperature (°C),Ambient temperature (°C),ASC tube jacket temperature (°C),LED temperature (°C),Box temperature (°C),Sample RH (%),Span deviation,Mass concentration (μg/m³),Mass concentration (μg/m³),Mass concentration (μg/m³)
DateTimeUTC,F1_M11,P_M11,Q1_M11,Q2_M11,T1_M11,T2_M11,T3_M11,T4_M11,T5_M11,U1_M11,ZSPAN_M11,X0_M11,X2_M11,X1_M11
2021-11-09 13:00:00,,0830.5,5.00,0.00,23.2,22.3,00.0,32.2,24.9,19.2,-001.1,0026.88,0016.46,0014.86
2021-11-09 13:01:00,,0830.5,5.01,0.00,23.1,22.3,00.0,32.2,24.9,19.3,-001.1,0026.11,0016.38,0014.82
2021-11-09 13:02:00,,0830.4,5.00,0.00,23.1,22.3,00.0,32.2,24.9,19.2,-001.2,0026.05,0016.36,0014.82
2021-11-09 13:03:00,,0830.4,5.00,0.00,23.1,22.3,00.0,32.2,24.9,19.0,-001.2,0026.10,0016.33,0014.78
2021-11-09 13:04:00,,0830.3,5.00,0.00,23.2,22.3,00.0,32.2,24.9,18.9,-001.3,0026.81,0016.29,0014.70
2021-11-09 13:05:00,,0830.3,5.00,0.00,23.1,22.3,00.0,32.2,24.9,19.0,-001.1,0027.78,0016.30,0014.68
2021-11-09 13:06:00,,0830.3,5.01,0.00,23.1,22.3,00.0,32.2,24.9,19.1,-001.0,0027.55,0016.24,0014.67
2021-11-09 13:07:00,,0830.4,4.99,0.00,23.1,22.3,00.0,32.2,24.9,19.0,-000.9,0027.18,0016.09,0014.57
2021-11-09 13:08:00,,0830.4,5.02,0.00,23.1,22.3,00.0,32.2,24.9,18.7,-000.7,0026.27,0015.86,0014.39
2021-11-09 13:09:00,,0830.4,5.00,0.00,23.1,22.2,00.0,32.2,24.9,18.6,-000.9,0025.50,0015.64,0014.17
2021-11-09 13:10:00,,0830.4,4.99,0.00,23.1,22.2,00.0,32.2,24.9,18.4,-000.9,0025.03,0015.36,0013.90
2021-11-09 13:11:00,,0830.5,4.99,0.00,23.1,22.2,00.0,32.2,24.8,18.4,-000.8,0024.53,0015.09,0013.66
2021-11-09 13:12:00,,0830.4,5.00,0.00,23.1,22.2,00.0,32.2,24.8,18.5,-000.7,0024.83,0014.93,0013.52
2021-11-09 13:13:00,,0830.3,5.01,0.00,23.1,22.2,00.0,32.2,24.8,18.6,-000.7,0024.10,0014.81,0013.39
2021-11-09 13:14:00,,0830.3,4.99,0.00,23.1,22.2,00.0,32.2,24.8,18.6,-000.6,0023.59,0014.65,0013.29
2021-11-09 13:15:00,,0830.4,5.00,0.00,23.1,22.2,00.0,32.2,24.9,18.7,-000.5,0022.79,0014.54,0013.26
2021-11-09 13:16:00,,0830.4,4.98,0.00,23.1,22.2,00.0,32.2,24.9,18.7,-000.8,0022.03,0014.43,0013.21
2021-11-09 13:17:00,,0830.4,5.03,0.00,23.1,22.2,00.0,32.1,24.9,18.7,-001.0,0022.35,0014.30,0013.08
2021-11-09 13:18:00,,0830.4,5.00,0.00,23.1,22.2,00.0,32.1,24.9,18.7,-001.1,0022.05,0014.23,0013.01
2021-11-09 13:19:00,,0830.5,5.01,0.00,23.1,22.2,00.0,32.1,24.9,18.7,-001.2,0022.21,0014.31,0013.05
2021-11-09 13:20:00,,0830.5,5.00,0.00,23.1,22.2,00.0,32.1,24.8,18.7,-001.2,0023.04,0014.41,0013.15
2021-11-09 13:21:00,,0830.5,5.00,0.00,23.1,22.2,00.0,32.1,24.8,18.7,-001.1,0022.86,0014.53,0013.32
2021-11-09 13:22:00,,0830.5,5.00,0.00,23.1,22.2,00.0,32.1,24.8,18.8,-001.3,0022.97,0014.67,0013.44
2021-11-09 13:23:00,,0830.4,4.99,0.00,23.0,22.2,00.0,32.1,24.8,18.9,-001.4,0022.27,0014.75,0013.52
2021-11-09 13:24:00,,0830.4,5.00,0.00,23.0,22.2,00.0,32.1,24.8,18.9,-001.3,0022.03,0014.77,0013.57
2021-11-09 13:25:00,,0830.4,4.99,0.00,23.0,22.2,00.0,32.1,24.8,18.9,-001.4,0022.23,0014.88,0013.66
2021-11-09 13:26:00,,0830.4,5.00,0.00,23.0,22.2,00.0,32.1,24.8,19.0,-001.3,0022.40,0015.02,0013.74
2021-11-09 13:27:00,,0830.4,5.00,0.00,23.0,22.2,00.0,32.1,24.8,19.0,-001.0,0023.62,0015.05,0013.76
2021-11-09 13:28:00,,0830.4,5.00,0.00,23.0,22.2,00.0,32.1,24.8,18.9,-001.0,0023.23,0015.03,0013.78
2021-11-09 13:29:00,,0830.4,5.00,0.00,23.0,22.2,00.0,32.1,24.8,18.8,-000.9,0023.57,0015.08,0013.78
2021-11-09 13:30:00,,0830.4,5.00,0.00,23.0,22.2,00.0,32.1,24.8,18.8,-000.9,0023.69,0015.00,0013.76
2021-11-09 13:31:00,,0830.4,4.99,0.00,23.0,22.2,00.0,32.1,24.8,18.7,-000.9,0023.33,0014.91,0013.70
2021-11-09 13:32:00,,0830.4,5.01,0.00,23.0,22.2,00.0,32.1,24.8,18.7,-000.9,0023.46,0014.88,0013.67
2021-11-09 13:33:00,,0830.4,4.99,0.00,23.0,22.2,00.0,32.1,24.8,18.8,-000.9,0023.57,0014.91,0013.70
2021-11-09 13:34:00,,0830.4,5.00,0.00,23.0,22.2,00.0,32.1,24.8,18.9,-000.9,0024.25,0015.00,0013.77
2021-11-09 13:35:00,,0830.4,4.99,0.00,23.0,22.2,00.0,32.1,24.8,18.9,-000.8,0024.47,0015.07,0013.79
2021-11-09 13:36:00,,0830.4,5.00,0.00,23.0,22.2,00.0,32.1,24.8,18.9,-000.7,0024.28,0015.04,0013.78
2021-11-09 13:37:00,,0830.4,5.01,0.00,23.0,22.2,00.0,32.1,24.8,18.9,-000.9,0024.37,0015.02,0013.77
2021-11-09 13:38:00,,0830.4,4.99,0.00,23.0,22.2,00.0,32.1,24.8,19.0,-000.8,0023.50,0015.06,0013.81
2021-11-09 13:39:00,,0830.4,5.01,0.00,23.0,22.2,00.0,32.1,24.8,19.0,-001.0,0024.31,0015.24,0013.95
2021-11-09 13:40:00,,0830.4,5.00,0.00,23.0,22.2,00.0,32.1,24.8,19.1,-001.0,0024.87,0015.36,0014.07
2021-11-09 13:41:00,,0830.4,5.00,0.00,23.0,22.2,00.0,32.1,24.8,19.1,-000.9,0025.91,0015.55,0014.22
2021-11-09 13:42:00,,0830.4,5.01,0.00,23.0,22.2,00.0,32.1,24.8,19.2,-001.0,0026.34,0015.80,0014.42
2021-11-09 13:43:00,,0830.4,4.99,0.00,23.0,22.1,00.0,32.1,24.8,19.2,-001.1,0027.25,0016.07,0014.62
2021-11-09 13:44:00,,0830.4,5.00,0.00,23.0,22.1,00.0,32.1,24.8,19.2,-001.1,0028.21,0016.20,0014.74
2021-11-09 13:45:00,,0830.5,5.00,0.00,23.0,22.1,00.0,32.1,24.8,19.2,-001.3,0027.84,0016.27,0014.80
2021-11-09 13:46:00,,0830.6,5.01,0.00,23.0,22.1,00.0,32.0,24.7,19.1,-001.3,0027.80,0016.21,0014.79
2021-11-09 13:47:00,,0830.6,4.99,0.00,23.0,22.1,00.0,32.0,24.7,19.1,-001.3,0028.14,0016.25,0014.82
2021-11-09 13:48:00,,0830.6,5.00,0.00,23.0,22.1,00.0,32.0,24.7,19.0,-001.3,0027.78,0016.24,0014.81
2021-11-09 13:49:00,,0830.5,5.00,0.00,23.0,22.1,00.0,32.0,24.7,18.8,-001.4,0027.26,0016.11,0014.72
2021-11-09 13:50:00,,0830.6,5.00,0.00,23.0,22.1,00.0,32.0,24.7,18.8,-001.1,0026.35,0015.91,0014.59
2021-11-09 13:51:00,,0830.5,4.99,0.00,22.9,22.1,00.0,32.0,24.7,18.8,-001.1,0025.65,0015.76,0014.46
2021-11-09 13:52:00,,0830.5,5.00,0.00,23.0,22.1,00.0,32.0,24.7,18.8,-001.2,0024.62,0015.68,0014.36
2021-11-09 13:53:00,,0830.5,5.00,0.00,23.0,22.1,00.0,32.0,24.7,18.8,-001.2,0024.54,0015.57,0014.26
2021-11-09 13:54:00,,0830.5,5.00,0.00,23.0,22.1,00.0,32.0,24.7,18.9,-001.2,0023.92,0015.39,0014.17
2021-11-09 13:55:00,,0830.5,5.00,0.00,22.9,22.1,00.0,32.0,24.7,19.0,-001.1,0023.64,0015.36,0014.12
2021-11-09 13:56:00,,0830.5,5.00,0.00,22.9,22.1,00.0,32.0,24.7,19.0,-000.9,0023.80,0015.36,0014.08
2021-11-09 13:57:00,,0830.4,4.99,0.00,22.9,22.0,00.0,32.0,24.6,19.1,-000.9,0024.09,0015.46,0014.16
2021-11-09 13:58:00,,0830.5,5.00,0.00,22.9,22.0,00.0,32.0,24.6,19.1,-001.0,0023.72,0015.48,0014.21
2021-11-09 13:59:00,,0830.5,5.01,0.00,22.8,22.0,00.0,32.0,24.6,19.1,-001.0,0024.04,0015.52,0014.23
